| time (UTC) | temp F | wind direction | speed MPH | gust MPH | rain 1hr in | rain 24hr in | rain mn in | humidity % | barometer mb |
| 20260903235004 | 81 | 277 | 0.0 | 2.0 | 0.00 | 0.06 | 0.06 | 86 | 1013.0 |
| 20260903234504 | 81 | 277 | 0.0 | 1.0 | 0.00 | 0.06 | 0.06 | 86 | 1012.9 |
| 20260903234005 | 82 | 277 | 0.0 | 0.0 | 0.00 | 0.06 | 0.06 | 86 | 1013.0 |
| 20260903233505 | 82 | 277 | 0.0 | 3.0 | 0.00 | 0.06 | 0.06 | 86 | 1013.1 |
| 20260903233006 | 82 | 277 | 0.0 | 3.0 | 0.00 | 0.06 | 0.06 | 85 | 1013.1 |
| 20260903232004 | 82 | 277 | 0.0 | 1.0 | 0.00 | 0.06 | 0.06 | 84 | 1013.1 |
| 20260903231504 | 83 | 277 | 0.0 | 1.0 | 0.00 | 0.06 | 0.06 | 83 | 1013.1 |
| 20260903230504 | 83 | 277 | 1.0 | 2.0 | 0.00 | 0.06 | 0.06 | 82 | 1013.2 |
| 20260903230005 | 83 | 277 | 0.0 | 3.0 | 0.00 | 0.06 | 0.06 | 83 | 1013.1 |
| 20260903225004 | 83 | 277 | 0.0 | 1.0 | 0.00 | 0.06 | 0.06 | 83 | 1013.1 |
| 20260903224503 | 83 | 277 | 0.0 | 1.0 | 0.00 | 0.06 | 0.06 | 82 | 1013.0 |
| 20260903224005 | 84 | 277 | 0.0 | 1.0 | 0.00 | 0.06 | 0.06 | 81 | 1013.0 |
| 20260903223504 | 84 | 277 | 0.0 | 1.0 | 0.00 | 0.06 | 0.06 | 81 | 1013.0 |
| 20260903222502 | 85 | 277 | 1.0 | 2.0 | 0.00 | 0.06 | 0.06 | 76 | 1012.9 |
| 20260903222005 | 85 | 277 | 1.0 | 3.0 | 0.00 | 0.06 | 0.06 | 76 | 1012.9 |
| 20260903221503 | 86 | 277 | 1.0 | 3.0 | 0.00 | 0.06 | 0.06 | 76 | 1012.8 |
| 20260903221004 | 86 | 277 | 0.0 | 1.0 | 0.00 | 0.06 | 0.06 | 75 | 1012.9 |
| 20260903220503 | 86 | 277 | 1.0 | 4.0 | 0.00 | 0.06 | 0.06 | 74 | 1013.0 |
| 20260903220005 | 86 | 277 | 1.0 | 4.0 | 0.00 | 0.06 | 0.06 | 75 | 1013.1 |
| 20260903214501 | 87 | 280 | 1.0 | 3.0 | 0.00 | 0.06 | 0.06 | 72 | 1013.0 |
| 20260903214004 | 86 | 281 | 2.0 | 9.0 | 0.00 | 0.06 | 0.06 | 73 | 1012.9 |
| 20260903213503 | 87 | 309 | 2.0 | 9.0 | 0.00 | 0.06 | 0.06 | 72 | 1013.1 |
| 20260903212502 | 88 | 311 | 2.0 | 8.0 | 0.00 | 0.06 | 0.06 | 72 | 1013.1 |
| 20260903211503 | 88 | 5 | 3.0 | 9.0 | 0.00 | 0.06 | 0.06 | 72 | 1013.1 |
| 20260903210502 | 88 | 311 | 2.0 | 7.0 | 0.00 | 0.06 | 0.06 | 72 | 1013.1 |
| 20260903205004 | 88 | 281 | 3.0 | 7.0 | 0.00 | 0.07 | 0.06 | 73 | 1013.2 |
| 20260903204503 | 88 | 308 | 2.0 | 6.0 | 0.00 | 0.07 | 0.06 | 73 | 1013.4 |
| 20260903203503 | 88 | 336 | 3.0 | 7.0 | 0.00 | 0.07 | 0.06 | 73 | 1013.4 |
| 20260903203004 | 89 | 299 | 2.0 | 6.0 | 0.00 | 0.07 | 0.06 | 74 | 1013.4 |
| 20260903202503 | 88 | 295 | 2.0 | 9.0 | 0.00 | 0.07 | 0.06 | 75 | 1013.5 |
| 20260903202003 | 88 | 329 | 3.0 | 7.0 | 0.00 | 0.07 | 0.06 | 73 | 1013.5 |
| 20260903201503 | 88 | 292 | 2.0 | 8.0 | 0.00 | 0.07 | 0.06 | 72 | 1013.6 |
| 20260903201005 | 88 | 316 | 2.0 | 8.0 | 0.00 | 0.07 | 0.06 | 73 | 1013.6 |
| 20260903200503 | 89 | 251 | 2.0 | 8.0 | 0.00 | 0.07 | 0.06 | 75 | 1013.6 |
| 20260903200006 | 88 | 281 | 2.0 | 6.0 | 0.00 | 0.07 | 0.06 | 75 | 1013.6 |
| 20260903195504 | 88 | 256 | 2.0 | 8.0 | 0.00 | 0.07 | 0.06 | 76 | 1013.6 |
| 20260903195004 | 88 | 265 | 2.0 | 8.0 | 0.00 | 0.07 | 0.06 | 75 | 1013.6 |
| 20260903194005 | 88 | 251 | 3.0 | 9.0 | 0.00 | 0.07 | 0.06 | 76 | 1013.8 |
| 20260903193504 | 88 | 219 | 3.0 | 8.0 | 0.00 | 0.07 | 0.06 | 76 | 1013.8 |
| 20260903193004 | 88 | 275 | 3.0 | 9.0 | 0.00 | 0.07 | 0.06 | 76 | 1013.9 |
| 20260903192503 | 88 | 322 | 2.0 | 9.0 | 0.00 | 0.07 | 0.06 | 76 | 1014.0 |
| 20260903192006 | 88 | 302 | 2.0 | 9.0 | 0.00 | 0.07 | 0.06 | 77 | 1014.1 |
| 20260903191003 | 86 | 261 | 2.0 | 7.0 | 0.00 | 0.07 | 0.06 | 78 | 1014.3 |
| 20260903190504 | 87 | 321 | 2.0 | 8.0 | 0.00 | 0.07 | 0.06 | 76 | 1014.1 |
| 20260903190002 | 87 | 316 | 2.0 | 8.0 | 0.00 | 0.07 | 0.06 | 77 | 1014.2 |
| 20260903185501 | 87 | 252 | 2.0 | 8.0 | 0.00 | 0.07 | 0.06 | 76 | 1014.3 |
| 20260903184502 | 87 | 258 | 2.0 | 7.0 | 0.00 | 0.07 | 0.06 | 76 | 1014.2 |
| 20260903184002 | 86 | 306 | 2.0 | 7.0 | 0.00 | 0.07 | 0.06 | 81 | 1014.3 |
| 20260903183501 | 84 | 246 | 2.0 | 5.0 | 0.00 | 0.07 | 0.06 | 79 | 1014.5 |
| 20260903183002 | 85 | 246 | 2.0 | 5.0 | 0.00 | 0.07 | 0.06 | 81 | 1014.6 |
| 20260903182002 | 85 | 309 | 2.0 | 7.0 | 0.00 | 0.07 | 0.06 | 80 | 1014.7 |
| 20260903181502 | 84 | 333 | 3.0 | 10.0 | 0.00 | 0.07 | 0.06 | 79 | 1014.9 |
| 20260903181002 | 84 | 308 | 3.0 | 10.0 | 0.00 | 0.07 | 0.06 | 81 | 1015.0 |
| 20260903180501 | 84 | 257 | 2.0 | 9.0 | 0.00 | 0.07 | 0.06 | 81 | 1014.9 |
| 20260903175502 | 84 | 279 | 2.0 | 11.0 | 0.00 | 0.07 | 0.06 | 81 | 1014.9 |
| 20260903175001 | 85 | 288 | 3.0 | 11.0 | 0.00 | 0.07 | 0.06 | 80 | 1015.0 |
| 20260903174502 | 85 | 340 | 3.0 | 10.0 | 0.00 | 0.07 | 0.06 | 81 | 1014.8 |
| 20260903174002 | 85 | 329 | 3.0 | 10.0 | 0.00 | 0.07 | 0.06 | 79 | 1015.0 |
| 20260903173503 | 86 | 315 | 2.0 | 7.0 | 0.00 | 0.07 | 0.06 | 79 | 1015.2 |
| 20260903173003 | 86 | 290 | 2.0 | 6.0 | 0.00 | 0.07 | 0.06 | 81 | 1015.0 |
| 20260903172003 | 85 | 292 | 3.0 | 7.0 | 0.00 | 0.07 | 0.06 | 79 | 1015.2 |
| 20260903171501 | 86 | 263 | 3.0 | 7.0 | 0.00 | 0.07 | 0.06 | 80 | 1015.4 |
| 20260903171002 | 85 | 331 | 3.0 | 10.0 | 0.00 | 0.07 | 0.06 | 79 | 1015.5 |
| 20260903170501 | 85 | 198 | 2.0 | 10.0 | 0.00 | 0.07 | 0.06 | 80 | 1015.2 |
| 20260903170005 | 85 | 311 | 2.0 | 9.0 | 0.00 | 0.07 | 0.06 | 81 | 1015.2 |
| 20260903165502 | 84 | 264 | 3.0 | 11.0 | 0.00 | 0.07 | 0.06 | 81 | 1015.4 |
| 20260903165003 | 84 | 237 | 3.0 | 11.0 | 0.00 | 0.07 | 0.06 | 80 | 1015.5 |
| 20260903164003 | 84 | 256 | 3.0 | 10.0 | 0.00 | 0.07 | 0.06 | 81 | 1015.7 |
| 20260903163502 | 84 | 335 | 3.0 | 10.0 | 0.00 | 0.07 | 0.06 | 80 | 1015.8 |
| 20260903163002 | 84 | 248 | 3.0 | 9.0 | 0.00 | 0.07 | 0.06 | 79 | 1015.8 |
| 20260903162503 | 84 | 248 | 3.0 | 9.0 | 0.00 | 0.07 | 0.06 | 79 | 1015.8 |
| 20260903161501 | 85 | 224 | 3.0 | 10.0 | 0.00 | 0.07 | 0.06 | 79 | 1015.6 |
| 20260903161003 | 84 | 85 | 3.0 | 7.0 | 0.00 | 0.07 | 0.06 | 79 | 1015.6 |
| 20260903160502 | 85 | 265 | 3.0 | 9.0 | 0.00 | 0.07 | 0.06 | 79 | 1015.5 |
| 20260903160002 | 84 | 286 | 2.0 | 9.0 | 0.00 | 0.07 | 0.06 | 81 | 1015.5 |
| 20260903155501 | 84 | 238 | 2.0 | 5.0 | 0.00 | 0.07 | 0.06 | 81 | 1015.5 |
| 20260903155002 | 85 | 237 | 3.0 | 10.0 | 0.00 | 0.07 | 0.06 | 78 | 1015.6 |
| 20260903154501 | 85 | 213 | 3.0 | 10.0 | 0.00 | 0.07 | 0.06 | 77 | 1015.6 |
| 20260903154003 | 85 | 257 | 3.0 | 7.0 | 0.00 | 0.07 | 0.06 | 80 | 1015.6 |
| 20260903153502 | 85 | 232 | 3.0 | 7.0 | 0.00 | 0.07 | 0.06 | 82 | 1015.5 |
| 20260903153002 | 85 | 246 | 3.0 | 10.0 | 0.00 | 0.07 | 0.06 | 82 | 1015.6 |
| 20260903152501 | 84 | 232 | 4.0 | 11.0 | 0.00 | 0.07 | 0.06 | 82 | 1015.6 |
| 20260903152004 | 83 | 209 | 4.0 | 10.0 | 0.00 | 0.07 | 0.06 | 81 | 1015.6 |
| 20260903151501 | 84 | 142 | 3.0 | 7.0 | 0.00 | 0.07 | 0.06 | 82 | 1015.8 |
| 20260903151003 | 83 | 234 | 3.0 | 8.0 | 0.00 | 0.07 | 0.06 | 83 | 1015.7 |
| 20260903150005 | 83 | 275 | 3.0 | 8.0 | 0.00 | 0.07 | 0.06 | 84 | 1015.7 |
| 20260903145005 | 82 | 254 | 4.0 | 10.0 | 0.00 | 0.07 | 0.06 | 86 | 1015.5 |
| 20260903144502 | 81 | 198 | 3.0 | 10.0 | 0.00 | 0.07 | 0.06 | 87 | 1015.6 |
| 20260903144004 | 81 | 225 | 3.0 | 9.0 | 0.00 | 0.07 | 0.06 | 87 | 1015.8 |
| 20260903143502 | 81 | 231 | 3.0 | 8.0 | 0.00 | 0.07 | 0.06 | 88 | 1015.7 |
| 20260903142503 | 80 | 219 | 3.0 | 7.0 | 0.00 | 0.07 | 0.06 | 89 | 1015.8 |
| 20260903142004 | 80 | 193 | 2.0 | 7.0 | 0.00 | 0.07 | 0.06 | 90 | 1016.0 |
| 20260903140002 | 78 | 225 | 2.0 | 7.0 | 0.00 | 0.07 | 0.06 | 91 | 1015.8 |
| 20260903135501 | 78 | 261 | 2.0 | 7.0 | 0.00 | 0.07 | 0.06 | 91 | 1015.9 |
| 20260903134504 | 77 | 247 | 3.0 | 10.0 | 0.00 | 0.07 | 0.06 | 91 | 1016.0 |
| 20260903134002 | 77 | 202 | 3.0 | 7.0 | 0.00 | 0.07 | 0.06 | 92 | 1016.2 |
| 20260903133502 | 77 | 194 | 2.0 | 6.0 | 0.00 | 0.07 | 0.06 | 92 | 1016.2 |
| 20260903133006 | 78 | 184 | 1.0 | 5.0 | 0.00 | 0.07 | 0.06 | 93 | 1016.2 |
| 20260903132502 | 78 | 239 | 2.0 | 5.0 | 0.00 | 0.07 | 0.06 | 93 | 1016.4 |
| 20260903132002 | 77 | 235 | 2.0 | 5.0 | 0.00 | 0.07 | 0.06 | 94 | 1016.6 |
| 20260903131002 | 77 | 240 | 2.0 | 7.0 | 0.00 | 0.07 | 0.06 | 94 | 1016.9 |
| 20260903130502 | 77 | 259 | 2.0 | 7.0 | 0.00 | 0.07 | 0.06 | 94 | 1016.8 |
| 20260903130005 | 76 | 204 | 2.0 | 5.0 | 0.00 | 0.07 | 0.06 | 94 | 1016.8 |
| 20260903125501 | 76 | 153 | 1.0 | 5.0 | 0.00 | 0.07 | 0.06 | 94 | 1017.2 |
| 20260903125004 | 76 | 138 | 2.0 | 7.0 | 0.00 | 0.07 | 0.06 | 95 | 1017.4 |
| 20260903124501 | 76 | 163 | 2.0 | 7.0 | 0.00 | 0.07 | 0.06 | 95 | 1017.4 |
| 20260903124005 | 76 | 61 | 1.0 | 3.0 | 0.00 | 0.07 | 0.06 | 95 | 1017.6 |
| 20260903123502 | 76 | 61 | 1.0 | 2.0 | 0.00 | 0.07 | 0.06 | 95 | 1017.9 |
| 20260903123003 | 76 | 61 | 1.0 | 2.0 | 0.00 | 0.07 | 0.06 | 95 | 1017.9 |
| 20260903122501 | 76 | 61 | 1.0 | 2.0 | 0.00 | 0.07 | 0.06 | 95 | 1017.9 |
| 20260903122003 | 75 | 61 | 1.0 | 4.0 | 0.00 | 0.07 | 0.06 | 95 | 1018.0 |
| 20260903121501 | 75 | 61 | 1.0 | 4.0 | 0.00 | 0.07 | 0.06 | 95 | 1018.1 |
| 20260903121002 | 75 | 60 | 1.0 | 3.0 | 0.00 | 0.07 | 0.06 | 95 | 1018.0 |
| 20260903120502 | 75 | 60 | 1.0 | 3.0 | 0.00 | 0.07 | 0.06 | 95 | 1017.9 |
| 20260903120008 | 75 | 60 | 1.0 | 3.0 | 0.00 | 0.07 | 0.06 | 95 | 1017.9 |
| 20260903115501 | 75 | 60 | 1.0 | 2.0 | 0.00 | 0.07 | 0.06 | 95 | 1017.9 |
| 20260903115003 | 75 | 60 | 1.0 | 3.0 | 0.01 | 0.07 | 0.06 | 95 | 1018.1 |
| 20260903114502 | 75 | 60 | 1.0 | 3.0 | 0.02 | 0.07 | 0.06 | 95 | 1017.9 |
| 20260903114003 | 75 | 59 | 1.0 | 2.0 | 0.02 | 0.07 | 0.06 | 95 | 1017.9 |
| 20260903113500 | 75 | 59 | 1.0 | 2.0 | 0.02 | 0.07 | 0.06 | 95 | 1017.9 |
| 20260903113003 | 75 | 59 | 1.0 | 3.0 | 0.02 | 0.07 | 0.06 | 95 | 1017.9 |
| 20260903112501 | 75 | 59 | 1.0 | 3.0 | 0.02 | 0.07 | 0.06 | 95 | 1017.8 |
| 20260903111502 | 75 | 59 | 1.0 | 3.0 | 0.02 | 0.07 | 0.06 | 95 | 1017.5 |
| 20260903111003 | 75 | 59 | 1.0 | 3.0 | 0.02 | 0.07 | 0.06 | 95 | 1017.4 |
| 20260903110501 | 75 | 59 | 1.0 | 3.0 | 0.02 | 0.07 | 0.06 | 95 | 1017.4 |
| 20260903110004 | 75 | 59 | 1.0 | 2.0 | 0.02 | 0.07 | 0.06 | 95 | 1017.4 |
| 20260903105502 | 75 | 59 | 1.0 | 2.0 | 0.02 | 0.07 | 0.06 | 95 | 1017.2 |
| 20260903105001 | 75 | 59 | 1.0 | 1.0 | 0.01 | 0.06 | 0.05 | 95 | 1017.1 |
| 20260903104501 | 75 | 59 | 1.0 | 2.0 | 0.00 | 0.05 | 0.04 | 95 | 1017.0 |
| 20260903104004 | 74 | 59 | 0.0 | 2.0 | 0.00 | 0.05 | 0.04 | 95 | 1017.3 |
| 20260903103501 | 75 | 59 | 1.0 | 2.0 | 0.00 | 0.05 | 0.04 | 95 | 1017.1 |
| 20260903103001 | 75 | 59 | 1.0 | 2.0 | 0.00 | 0.05 | 0.04 | 95 | 1017.1 |
| 20260903102501 | 75 | 59 | 1.0 | 2.0 | 0.00 | 0.05 | 0.04 | 95 | 1017.3 |
| 20260903102002 | 74 | 59 | 1.0 | 2.0 | 0.00 | 0.05 | 0.04 | 95 | 1017.3 |
| 20260903100500 | 74 | 59 | 0.0 | 1.0 | 0.00 | 0.05 | 0.04 | 95 | 1016.9 |
| 20260903100005 | 74 | 59 | 0.0 | 1.0 | 0.00 | 0.05 | 0.04 | 95 | 1016.8 |
| 20260903095459 | 74 | 59 | 0.0 | 1.0 | 0.00 | 0.05 | 0.04 | 95 | 1016.7 |
| 20260903095002 | 74 | 59 | 0.0 | 0.0 | 0.00 | 0.05 | 0.04 | 95 | 1016.8 |
| 20260903094500 | 74 | 59 | 0.0 | 0.0 | 0.00 | 0.05 | 0.04 | 94 | 1016.8 |
| 20260903094000 | 74 | 59 | 0.0 | 1.0 | 0.00 | 0.05 | 0.04 | 94 | 1016.8 |
| 20260903093501 | 74 | 59 | 0.0 | 1.0 | 0.01 | 0.05 | 0.04 | 94 | 1016.9 |
| 20260903093002 | 74 | 59 | 0.0 | 1.0 | 0.01 | 0.05 | 0.04 | 94 | 1016.8 |
| 20260903092500 | 74 | 59 | 0.0 | 1.0 | 0.01 | 0.05 | 0.04 | 94 | 1016.7 |
| 20260903092000 | 75 | 59 | 0.0 | 0.0 | 0.01 | 0.05 | 0.04 | 95 | 1016.7 |
| 20260903091500 | 75 | 59 | 1.0 | 3.0 | 0.01 | 0.05 | 0.04 | 94 | 1016.6 |
| 20260903091001 | 75 | 59 | 1.0 | 3.0 | 0.01 | 0.05 | 0.04 | 95 | 1016.7 |
| 20260903090500 | 75 | 59 | 1.0 | 3.0 | 0.01 | 0.05 | 0.04 | 94 | 1016.7 |
| 20260903090004 | 75 | 59 | 0.0 | 1.0 | 0.01 | 0.05 | 0.04 | 94 | 1016.5 |
| 20260903085500 | 75 | 59 | 0.0 | 2.0 | 0.03 | 0.05 | 0.04 | 94 | 1016.5 |
| 20260903085000 | 75 | 59 | 0.0 | 2.0 | 0.04 | 0.05 | 0.04 | 94 | 1016.5 |
| 20260903084501 | 75 | 59 | 1.0 | 2.0 | 0.04 | 0.05 | 0.04 | 94 | 1016.4 |
| 20260903084000 | 75 | 59 | 1.0 | 2.0 | 0.04 | 0.05 | 0.04 | 94 | 1016.5 |
| 20260903083459 | 75 | 59 | 0.0 | 2.0 | 0.03 | 0.04 | 0.03 | 94 | 1016.9 |
| 20260903083000 | 75 | 59 | 0.0 | 2.0 | 0.03 | 0.04 | 0.03 | 94 | 1017.1 |
| 20260903082500 | 75 | 59 | 1.0 | 2.0 | 0.03 | 0.04 | 0.03 | 95 | 1017.1 |
| 20260903082000 | 75 | 59 | 1.0 | 2.0 | 0.03 | 0.04 | 0.03 | 94 | 1017.3 |
| 20260903081500 | 75 | 59 | 1.0 | 2.0 | 0.03 | 0.04 | 0.03 | 94 | 1017.1 |
| 20260903081002 | 75 | 59 | 1.0 | 2.0 | 0.03 | 0.04 | 0.03 | 94 | 1017.1 |
| 20260903080500 | 75 | 59 | 1.0 | 3.0 | 0.03 | 0.04 | 0.03 | 94 | 1016.8 |
| 20260903075459 | 75 | 59 | 2.0 | 3.0 | 0.01 | 0.02 | 0.01 | 94 | 1017.5 |
| 20260903075001 | 75 | 60 | 2.0 | 3.0 | 0.00 | 0.01 | 0.00 | 94 | 1017.5 |
| 20260903074500 | 75 | 60 | 2.0 | 5.0 | 0.00 | 0.01 | 0.00 | 94 | 1017.5 |
| 20260903073500 | 74 | 89 | 1.0 | 3.0 | 0.00 | 0.01 | 0.00 | 94 | 1017.1 |
| 20260903072500 | 74 | 89 | 0.0 | 2.0 | 0.00 | 0.01 | 0.00 | 94 | 1016.5 |
| 20260903072001 | 74 | 89 | 0.0 | 1.0 | 0.00 | 0.01 | 0.00 | 94 | 1016.4 |
| 20260903071459 | 74 | 89 | 0.0 | 1.0 | 0.00 | 0.01 | 0.00 | 94 | 1016.2 |
| 20260903071000 | 74 | 89 | 0.0 | 2.0 | 0.00 | 0.01 | 0.00 | 94 | 1016.2 |
| 20260903070500 | 74 | 89 | 1.0 | 2.0 | 0.00 | 0.01 | 0.00 | 94 | 1016.1 |
| 20260903070004 | 74 | 89 | 1.0 | 2.0 | 0.00 | 0.01 | 0.00 | 94 | 1016.2 |
| 20260903064459 | 74 | 89 | 0.0 | 2.0 | 0.00 | 0.01 | 0.00 | 94 | 1016.0 |
| 20260903064000 | 74 | 89 | 0.0 | 1.0 | 0.00 | 0.01 | 0.00 | 94 | 1016.0 |
| 20260903063459 | 74 | 89 | 0.0 | 1.0 | 0.00 | 0.01 | 0.00 | 94 | 1015.9 |
| 20260903062959 | 74 | 89 | 1.0 | 2.0 | 0.00 | 0.01 | 0.00 | 94 | 1016.1 |
| 20260903062459 | 74 | 89 | 1.0 | 2.0 | 0.00 | 0.01 | 0.00 | 94 | 1016.0 |
| 20260903061959 | 74 | 89 | 1.0 | 2.0 | 0.00 | 0.01 | 0.00 | 94 | 1015.8 |
| 20260903061459 | 74 | 89 | 0.0 | 2.0 | 0.00 | 0.01 | 0.00 | 94 | 1015.7 |
| 20260903060459 | 74 | 89 | 1.0 | 2.0 | 0.00 | 0.01 | 0.00 | 94 | 1016.1 |
| 20260903055500 | 74 | 89 | 0.0 | 2.0 | 0.00 | 0.05 | 0.00 | 94 | 1016.2 |
| 20260903055003 | 74 | 89 | 0.0 | 2.0 | 0.00 | 0.05 | 0.00 | 94 | 1016.3 |
| 20260903054500 | 74 | 89 | 0.0 | 2.0 | 0.00 | 0.05 | 0.00 | 94 | 1016.4 |
| 20260903054000 | 74 | 89 | 0.0 | 1.0 | 0.00 | 0.05 | 0.00 | 94 | 1016.7 |
| 20260903053459 | 74 | 89 | 1.0 | 2.0 | 0.00 | 0.05 | 0.00 | 94 | 1016.7 |
| 20260903053000 | 74 | 89 | 1.0 | 2.0 | 0.00 | 0.05 | 0.00 | 94 | 1017.0 |
| 20260903052500 | 74 | 89 | 0.0 | 1.0 | 0.00 | 0.05 | 0.00 | 94 | 1017.0 |
| 20260903052000 | 74 | 89 | 0.0 | 1.0 | 0.00 | 0.05 | 0.00 | 94 | 1017.1 |
| 20260903051000 | 74 | 89 | 0.0 | 1.0 | 0.00 | 0.05 | 0.00 | 94 | 1017.1 |
| 20260903050459 | 74 | 89 | 0.0 | 1.0 | 0.00 | 0.05 | 0.00 | 94 | 1016.9 |
| 20260903050006 | 74 | 89 | 0.0 | 1.0 | 0.00 | 0.05 | 0.00 | 94 | 1017.0 |
| 20260903045008 | 74 | 89 | 1.0 | 2.0 | 0.00 | 0.99 | 0.00 | 94 | 1017.2 |
| 20260903044004 | 74 | 89 | 1.0 | 3.0 | 0.00 | 0.99 | 0.00 | 94 | 1016.9 |
| 20260903043505 | 74 | 89 | 0.0 | 2.0 | 0.00 | 0.99 | 0.00 | 94 | 1016.7 |
| 20260903042504 | 75 | 89 | 1.0 | 2.0 | 0.00 | 0.99 | 0.00 | 94 | 1017.0 |
| 20260903042005 | 74 | 89 | 0.0 | 1.0 | 0.00 | 0.99 | 0.00 | 93 | 1017.2 |
| 20260903041504 | 74 | 89 | 0.0 | 0.0 | 0.00 | 0.99 | 0.00 | 93 | 1017.4 |
| 20260903041005 | 74 | 89 | 0.0 | 1.0 | 0.00 | 0.99 | 0.00 | 93 | 1017.3 |
| 20260903040504 | 74 | 89 | 0.0 | 1.0 | 0.00 | 0.99 | 0.00 | 93 | 1017.5 |
| 20260903040010 | 74 | 89 | 0.0 | 1.0 | 0.00 | 0.99 | 0.00 | 93 | 1017.3 |
| 20260903035503 | 74 | 89 | 0.0 | 1.0 | 0.00 | 1.17 | 0.99 | 93 | 1017.3 |
| 20260903035004 | 75 | 89 | 0.0 | 1.0 | 0.00 | 1.17 | 0.99 | 93 | 1017.4 |
| 20260903034503 | 75 | 89 | 0.0 | 1.0 | 0.00 | 1.17 | 0.99 | 93 | 1017.4 |
| 20260903034005 | 75 | 89 | 0.0 | 1.0 | 0.00 | 1.17 | 0.99 | 93 | 1017.3 |
| 20260903033507 | 75 | 89 | 0.0 | 1.0 | 0.00 | 1.17 | 0.99 | 93 | 1017.1 |
| 20260903033005 | 75 | 89 | 0.0 | 2.0 | 0.00 | 1.17 | 0.99 | 93 | 1017.1 |
| 20260903032504 | 75 | 89 | 1.0 | 2.0 | 0.00 | 1.17 | 0.99 | 93 | 1017.0 |
| 20260903032005 | 75 | 89 | 1.0 | 2.0 | 0.00 | 1.17 | 0.99 | 93 | 1017.1 |
| 20260903031504 | 75 | 89 | 1.0 | 2.0 | 0.00 | 1.17 | 0.99 | 93 | 1017.3 |
| 20260903031004 | 75 | 89 | 1.0 | 2.0 | 0.00 | 1.17 | 0.99 | 93 | 1017.5 |
| 20260903030504 | 75 | 89 | 0.0 | 1.0 | 0.00 | 1.17 | 0.99 | 93 | 1017.4 |
| 20260903030005 | 75 | 89 | 0.0 | 1.0 | 0.00 | 1.38 | 0.99 | 93 | 1017.4 |
| 20260903025503 | 75 | 89 | 0.0 | 1.0 | 0.00 | 1.38 | 0.99 | 93 | 1017.3 |
| 20260903025006 | 75 | 89 | 0.0 | 1.0 | 0.00 | 1.38 | 0.99 | 93 | 1017.3 |
| 20260903024504 | 75 | 89 | 0.0 | 1.0 | 0.00 | 1.38 | 0.99 | 93 | 1017.4 |
| 20260903023504 | 75 | 89 | 1.0 | 2.0 | 0.00 | 1.38 | 0.99 | 93 | 1017.5 |
| 20260903023005 | 75 | 89 | 1.0 | 2.0 | 0.00 | 1.38 | 0.99 | 93 | 1017.5 |
| 20260903022504 | 75 | 89 | 1.0 | 2.0 | 0.00 | 1.38 | 0.99 | 93 | 1017.4 |
| 20260903022005 | 75 | 89 | 1.0 | 3.0 | 0.00 | 1.38 | 0.99 | 93 | 1017.4 |
| 20260903021504 | 75 | 89 | 1.0 | 3.0 | 0.00 | 1.38 | 0.99 | 93 | 1017.3 |
| 20260903021005 | 75 | 89 | 0.0 | 2.0 | 0.00 | 1.38 | 0.99 | 93 | 1017.0 |
| 20260903020503 | 75 | 89 | 0.0 | 2.0 | 0.00 | 1.38 | 0.99 | 93 | 1017.1 |
| 20260903020007 | 75 | 89 | 0.0 | 2.0 | 0.00 | 1.38 | 0.99 | 92 | 1017.1 |
| 20260903015504 | 75 | 89 | 1.0 | 2.0 | 0.00 | 1.38 | 0.99 | 92 | 1017.2 |
| 20260903013504 | 75 | 89 | 1.0 | 3.0 | 0.00 | 1.38 | 0.99 | 92 | 1017.4 |
| 20260903013007 | 75 | 89 | 1.0 | 3.0 | 0.00 | 1.38 | 0.99 | 92 | 1017.3 |
| 20260903012503 | 75 | 89 | 1.0 | 3.0 | 0.00 | 1.38 | 0.99 | 92 | 1017.4 |
| 20260903012006 | 76 | 89 | 1.0 | 3.0 | 0.00 | 1.38 | 0.99 | 92 | 1017.4 |
| 20260903011504 | 76 | 89 | 1.0 | 2.0 | 0.00 | 1.38 | 0.99 | 92 | 1017.4 |
| 20260903011005 | 76 | 89 | 1.0 | 2.0 | 0.00 | 1.38 | 0.99 | 92 | 1017.6 |
| 20260903010507 | 76 | 89 | 1.0 | 3.0 | 0.00 | 1.38 | 0.99 | 91 | 1017.7 |
| 20260903010006 | 76 | 89 | 1.0 | 3.0 | 0.00 | 1.38 | 0.99 | 91 | 1017.6 |
| 20260903005504 | 76 | 89 | 1.0 | 2.0 | 0.00 | 1.38 | 0.99 | 91 | 1017.4 |
| 20260903005004 | 76 | 89 | 1.0 | 2.0 | 0.00 | 1.38 | 0.99 | 91 | 1017.5 |
| 20260903004503 | 76 | 89 | 0.0 | 2.0 | 0.00 | 1.38 | 0.99 | 91 | 1017.4 |
| 20260903004003 | 76 | 89 | 1.0 | 2.0 | 0.00 | 1.38 | 0.99 | 91 | 1017.1 |
| 20260903003503 | 76 | 89 | 1.0 | 3.0 | 0.00 | 1.38 | 0.99 | 91 | 1017.3 |
| 20260903003004 | 76 | 89 | 1.0 | 3.0 | 0.00 | 1.38 | 0.99 | 91 | 1017.0 |
| 20260903002504 | 76 | 89 | 1.0 | 2.0 | 0.00 | 1.38 | 0.99 | 91 | 1017.0 |
| 20260903002003 | 76 | 89 | 1.0 | 2.0 | 0.00 | 1.38 | 0.99 | 91 | 1017.1 |
| 20260903001503 | 76 | 89 | 1.0 | 2.0 | 0.00 | 1.38 | 0.99 | 91 | 1017.1 |
| 20260903001003 | 76 | 89 | 0.0 | 2.0 | 0.00 | 1.38 | 0.99 | 91 | 1017.2 |
| 20260903000503 | 76 | 89 | 1.0 | 2.0 | 0.00 | 1.38 | 0.99 | 91 | 1017.2 |
| 20260903000006 | 76 | 89 | 1.0 | 6.0 | 0.00 | 1.38 | 0.99 | 91 | 1017.3 |
| 20260902235503 | 76 | 89 | 1.0 | 6.0 | 0.00 | 1.38 | 0.99 | 91 | 1017.1 |